QPF
0.00 0.00 0.00 0.03 0.05 0.01 0.00 0.00 0.00 0.00 0.00 0.00 0.00 0.00 0.00 0.00 0.00 0.00 0.00 0.00 0.00 0.00 0.00 0.00 0.00 0.00 0.00 0.00 0.00 0.00 0.00 0.00 0.00 0.00 0.00 0.00 0.00 0.00 0.00 0.00 0.00 0.00 0.00
0.00 0.00 0.01 0.04 0.03 0.01 0.00 0.00 0.00 0.00 0.00 0.00 0.00 0.00 0.00 0.00 0.00 0.00 0.00 0.00 0.00 0.00 0.00 0.00 0.00 0.00 0.00 0.00 0.01 0.00 0.00 0.00 0.00 0.00 0.00 0.00 0.00 0.00 0.00 0.00 0.00 0.01 0.02
0.00 0.00 0.00 0.03 0.02 0.01 0.00 0.00 0.00 0.00 0.00 0.00 0.00 0.00 0.00 0.00 0.00 0.00 0.00 0.00 0.00 0.00 0.00 0.00 0.00 0.00 0.00 0.00 0.00 0.00 0.00 0.00 0.00 0.00 0.00 0.00 0.00 0.00 0.00 0.00 0.00 0.00 0.02
0.00 0.00 0.00 0.02 0.02 0.00 0.00 0.00 0.00 0.00 0.00 0.00 0.00 0.00 0.01 0.00 0.00 0.00 0.00 0.00 0.00 0.00 0.00 0.00 0.00 0.00 0.00 0.00 0.00 0.00 0.00 0.00 0.00 0.00 0.00 0.00 0.00 0.00 0.00 0.00 0.00 0.00 0.00
0.00 0.00 0.00 0.01 0.01 0.00 0.00 0.00 0.00 0.00 0.00 0.00 0.00 0.01 0.00 0.00 0.00 0.00 0.00 0.00 0.00 0.00 0.00 0.00 0.00 0.00 0.00 0.00 0.00 0.00 0.00 0.00 0.00 0.00 0.00 0.00 0.01 0.00 0.00 0.00 0.00 0.00 0.00
0.00 0.00 0.00 0.01 0.01 0.00 0.00 0.00 0.00 0.00 0.00 0.00 0.00 0.00 0.00 0.00 0.00 0.00 0.00 0.00 0.00 0.00 0.00 0.00 0.00 0.00 0.00 0.00 0.00 0.00 0.00 0.00 0.00 0.00 0.00 0.00 0.00 0.00 0.00 0.00 0.00 0.00 0.00
0.00 0.00 0.00 0.01 0.01 0.00 0.00 0.00 0.00 0.00 0.00 0.00 0.00 0.00 0.00 0.00 0.00 0.00 0.00 0.00 0.00 0.00 0.00 0.00 0.00 0.00 0.00 0.00 0.00 0.00 0.00 0.00 0.00 0.00 0.00 0.00 0.00 0.00 0.00 0.00 0.00 0.00 0.00
0.00 0.00 0.00 0.00 0.00 0.00 0.00 0.00 0.00 0.00 0.00 0.00 0.00 0.00 0.00 0.00 0.00 0.00 0.00 0.01 0.00 0.00 0.00 0.00 0.00 0.00 0.00 0.00 0.00 0.00 0.00 0.00 0.00 0.00 0.00 0.00 0.00 0.00 0.00 0.00 0.00 0.00 0.00
0.00 0.00 0.00 0.00 0.00 0.00 0.00 0.00 0.00 0.00 0.00 0.00 0.00 0.00 0.00 0.00 0.00 0.00 0.01 0.01 0.01 0.00 0.00 0.00 0.00 0.00 0.00 0.00 0.00 0.00 0.00 0.00 0.00 0.00 0.00 0.00 0.00 0.00 0.00 0.00 0.00 0.00 0.00
0.00 0.00 0.00 0.00 0.00 0.00 0.00 0.00 0.00 0.00 0.00 0.00 0.00 0.00 0.00 0.00 0.00 0.00 0.00 0.00 0.00 0.00 0.00 0.00 0.00 0.00 0.00 0.00 0.00 0.00 0.00 0.00 0.00 0.00 0.00 0.00 0.00 0.00 0.00 0.00 0.00 0.00 0.00
0.00 0.00 0.00 0.00 0.00 0.00 0.00 0.00 0.00 0.00 0.00 0.00 0.00 0.00 0.00 0.00 0.00 0.00 0.00 0.00 0.00 0.00 0.00 0.00 0.00 0.00 0.00 0.00 0.00 0.00 0.00 0.00 0.00 0.00 0.00 0.00 0.00 0.00 0.00 0.00 0.00 0.00 0.00
0.00 0.00 0.00 0.00 0.00 0.00 0.00 0.00 0.00 0.00 0.00 0.00 0.00 0.00 0.00 0.00 0.00 0.00 0.00 0.00 0.00 0.00 0.00 0.00 0.00 0.00 0.00 0.00 0.00 0.00 0.00 0.00 0.00 0.00 0.00 0.00 0.00 0.00 0.00 0.00 0.00 0.00 0.00
0.00 0.00 0.00 0.00 0.00 0.00 0.00 0.00 0.00 0.00 0.00 0.00 0.00 0.00 0.00 0.00 0.00 0.00 0.00 0.00 0.00 0.00 0.00 0.00 0.00 0.00 0.00 0.00 0.00 0.00 0.00 0.00 0.00 0.00 0.00 0.00 0.00 0.00 0.00 0.00 0.00 0.00 0.00
0.00 0.00 0.00 0.00 0.00 0.00 0.00 0.00 0.00 0.00 0.00 0.00 0.00 0.00 0.00 0.00 0.00 0.00 0.00 0.00 0.00 0.00 0.00 0.00 0.00 0.00 0.00 0.00 0.00 0.00 0.00 0.00 0.00 0.00 0.00 0.00 0.00 0.00 0.00 0.00 0.00 0.00 0.00
0.00 0.00 0.00 0.00 0.00 0.00 0.00 0.00 0.00 0.00 0.00 0.00 0.00 0.00 0.00 0.00 0.00 0.00 0.00 0.00 0.00 0.00 0.00 0.00 0.00 0.00 0.00 0.00 0.00 0.00 0.00 0.00 0.00 0.00 0.00 0.00 0.00 0.00 0.00 0.00 0.00 0.00 0.00
0.00 0.00 0.00 0.00 0.00 0.00 0.00 0.00 0.00 0.00 0.00 0.00 0.00 0.00 0.00 0.00 0.00 0.00 0.00 0.00 0.00 0.00 0.00 0.00 0.00 0.00 0.00 0.00 0.00 0.00 0.00 0.00 0.00 0.00 0.00 0.00 0.00 0.00 0.00 0.00 0.00 0.00 0.00
0.00 0.00 0.00 0.00 0.00 0.00 0.00 0.00 0.00 0.00 0.00 0.00 0.00 0.00 0.00 0.00 0.00 0.00 0.00 0.00 0.00 0.00 0.00 0.00 0.00 0.00 0.00 0.00 0.00 0.00 0.00 0.00 0.00 0.00 0.00 0.00 0.00 0.00 0.00 0.00 0.00 0.00 0.00
0.00 0.00 0.00 0.00 0.00 0.00 0.00 0.00 0.00 0.00 0.00 0.00 0.00 0.00 0.00 0.00 0.00 0.00 0.00 0.00 0.00 0.00 0.00 0.00 0.00 0.00 0.00 0.00 0.00 0.00 0.00 0.00 0.00 0.00 0.00 0.00 0.00 0.00 0.00 0.00 0.00 0.00 0.00
0.00 0.00 0.00 0.00 0.00 0.00 0.00 0.00 0.00 0.00 0.00 0.00 0.00 0.00 0.00 0.00 0.00 0.00 0.00 0.00 0.00 0.00 0.00 0.00 0.00 0.00 0.00 0.00 0.00 0.00 0.00 0.00 0.00 0.00 0.00 0.00 0.00 0.00 0.00 0.00 0.00 0.00 0.00
0.00 0.00 0.00 0.00 0.00 0.00 0.00 0.00 0.00 0.00 0.00 0.00 0.00 0.00 0.00 0.00 0.00 0.00 0.00 0.00 0.00 0.00 0.00 0.00 0.00 0.00 0.00 0.00 0.00 0.00 0.00 0.00 0.00 0.00 0.00 0.00 0.00 0.00 0.00 0.00 0.00 0.00 0.00
0.00 0.00 0.00 0.00 0.00 0.00 0.00 0.00 0.00 0.00 0.00 0.00 0.00 0.00 0.00 0.00 0.00 0.00 0.00 0.00 0.00 0.00 0.00 0.00 0.00 0.00 0.00 0.00 0.00 0.00 0.00 0.00 0.00 0.00 0.00 0.00 0.00 0.00 0.00 0.00 0.00 0.00 0.00
0.00 0.00 0.00 0.00 0.00 0.00 0.00 0.00 0.00 0.00 0.00 0.00 0.00 0.00 0.00 0.00 0.00 0.00 0.00 0.00 0.00 0.00 0.00 0.00 0.00 0.00 0.00 0.00 0.00 0.00 0.00 0.00 0.00 0.00 0.00 0.00 0.00 0.00 0.00 0.00 0.00 0.00 0.00
0.00 0.00 0.00 0.00 0.00 0.00 0.00 0.00 0.00 0.00 0.00 0.00 0.00 0.00 0.00 0.00 0.00 0.00 0.00 0.00 0.00 0.00 0.00 0.00 0.00 0.00 0.00 0.00 0.00 0.00 0.00 0.00 0.00 0.00 0.00 0.00 0.00 0.00 0.00 0.00 0.00 0.00 0.00
0.00 0.00 0.00 0.00 0.00 0.00 0.00 0.00 0.00 0.00 0.00 0.00 0.00 0.00 0.00 0.00 0.00 0.00 0.00 0.00 0.00 0.00 0.00 0.00 0.00 0.00 0.00 0.00 0.00 0.00 0.00 0.00 0.00 0.00 0.00 0.00 0.00 0.00 0.00 0.00 0.00 0.00 0.00
0.00 0.00 0.00 0.00 0.00 0.00 0.00 0.00 0.00 0.00 0.00 0.00 0.00 0.00 0.00 0.00 0.00 0.00 0.00 0.00 0.00 0.00 0.00 0.00 0.00 0.00 0.00 0.00 0.00 0.00 0.00 0.00 0.00 0.00 0.00 0.00 0.00 0.00 0.00 0.00 0.00 0.00 0.00
0.00 0.00 0.00 0.00 0.00 0.00 0.00 0.00 0.00 0.00 0.00 0.00 0.00 0.00 0.00 0.00 0.00 0.00 0.00 0.00 0.00 0.00 0.00 0.00 0.00 0.00 0.00 0.00 0.00 0.00 0.00 0.00 0.00 0.00 0.00 0.00 0.00 0.00 0.00 0.00 0.00 0.00 0.00
MSLP
1011.79 1011.73 1011.75 1011.91 1012.20 1012.58 1013.00 1013.39 1013.68 1013.86 1013.93 1013.93 1013.91 1013.92 1013.97 1014.10 1014.26 1014.44 1014.59 1014.68 1014.71 1014.69 1014.65 1014.61 1014.61 1014.66 1014.76 1014.90 1015.05 1015.19 1015.30 1015.37 1015.41 1015.40 1015.38 1015.36 1015.32 1015.28 1015.23 1015.17 1015.10 1015.01 1014.92
1011.57 1011.54 1011.63 1011.86 1012.22 1012.65 1013.09 1013.46 1013.73 1013.89 1013.94 1013.94 1013.94 1013.99 1014.10 1014.29 1014.51 1014.72 1014.89 1014.99 1015.02 1015.00 1014.95 1014.92 1014.92 1014.98 1015.08 1015.21 1015.34 1015.45 1015.52 1015.56 1015.56 1015.54 1015.51 1015.48 1015.46 1015.43 1015.39 1015.34 1015.28 1015.20 1015.13
1011.30 1011.33 1011.49 1011.80 1012.23 1012.72 1013.19 1013.57 1013.83 1013.96 1014.00 1014.01 1014.04 1014.13 1014.29 1014.51 1014.76 1014.99 1015.16 1015.25 1015.27 1015.24 1015.19 1015.16 1015.18 1015.25 1015.36 1015.48 1015.59 1015.67 1015.70 1015.70 1015.67 1015.63 1015.60 1015.58 1015.56 1015.56 1015.54 1015.51 1015.46 1015.41 1015.36
1011.00 1011.08 1011.33 1011.74 1012.25 1012.80 1013.30 1013.69 1013.95 1014.08 1014.12 1014.14 1014.18 1014.30 1014.49 1014.74 1014.99 1015.22 1015.37 1015.44 1015.43 1015.39 1015.35 1015.34 1015.38 1015.47 1015.58 1015.70 1015.80 1015.84 1015.84 1015.80 1015.75 1015.69 1015.66 1015.64 1015.65 1015.66 1015.67 1015.67 1015.65 1015.62 1015.61
1010.69 1010.85 1011.18 1011.67 1012.27 1012.87 1013.41 1013.82 1014.07 1014.20 1014.25 1014.27 1014.34 1014.47 1014.68 1014.92 1015.17 1015.37 1015.49 1015.53 1015.51 1015.46 1015.43 1015.44 1015.51 1015.63 1015.76 1015.89 1015.97 1015.99 1015.96 1015.89 1015.80 1015.74 1015.70 1015.69 1015.72 1015.75 1015.78 1015.80 1015.81 1015.82 1015.83
1010.44 1010.65 1011.06 1011.63 1012.28 1012.93 1013.49 1013.91 1014.17 1014.30 1014.35 1014.38 1014.46 1014.60 1014.81 1015.05 1015.27 1015.44 1015.53 1015.55 1015.52 1015.48 1015.47 1015.51 1015.61 1015.76 1015.91 1016.04 1016.11 1016.11 1016.05 1015.95 1015.85 1015.77 1015.72 1015.73 1015.76 1015.82 1015.87 1015.91 1015.94 1015.97 1016.00
1010.28 1010.53 1010.99 1011.60 1012.29 1012.96 1013.52 1013.94 1014.20 1014.32 1014.38 1014.43 1014.52 1014.67 1014.87 1015.10 1015.30 1015.45 1015.52 1015.52 1015.49 1015.46 1015.48 1015.56 1015.70 1015.87 1016.04 1016.17 1016.22 1016.20 1016.11 1015.99 1015.87 1015.78 1015.73 1015.74 1015.79 1015.86 1015.93 1015.98 1016.03 1016.07 1016.12
1010.24 1010.51 1010.98 1011.61 1012.29 1012.94 1013.49 1013.89 1014.13 1014.26 1014.32 1014.39 1014.49 1014.66 1014.87 1015.09 1015.28 1015.41 1015.47 1015.47 1015.46 1015.45 1015.50 1015.61 1015.78 1015.97 1016.14 1016.26 1016.30 1016.26 1016.14 1016.00 1015.86 1015.76 1015.72 1015.73 1015.79 1015.87 1015.95 1016.02 1016.07 1016.12 1016.18
1010.31 1010.58 1011.03 1011.63 1012.27 1012.88 1013.38 1013.74 1013.97 1014.09 1014.17 1014.25 1014.38 1014.57 1014.79 1015.02 1015.21 1015.34 1015.41 1015.42 1015.42 1015.44 1015.52 1015.65 1015.83 1016.03 1016.20 1016.30 1016.32 1016.24 1016.11 1015.95 1015.80 1015.70 1015.66 1015.69 1015.76 1015.85 1015.94 1016.01 1016.07 1016.11 1016.16
1010.44 1010.69 1011.10 1011.64 1012.21 1012.75 1013.19 1013.51 1013.71 1013.83 1013.92 1014.03 1014.20 1014.41 1014.65 1014.90 1015.10 1015.24 1015.32 1015.35 1015.37 1015.41 1015.50 1015.65 1015.83 1016.02 1016.17 1016.24 1016.23 1016.14 1015.98 1015.81 1015.67 1015.58 1015.56 1015.60 1015.69 1015.79 1015.89 1015.96 1016.01 1016.04 1016.08
1010.55 1010.77 1011.14 1011.60 1012.09 1012.55 1012.93 1013.20 1013.38 1013.50 1013.61 1013.76 1013.95 1014.19 1014.46 1014.72 1014.94 1015.10 1015.19 1015.23 1015.27 1015.33 1015.42 1015.56 1015.73 1015.90 1016.02 1016.06 1016.03 1015.92 1015.76 1015.59 1015.46 1015.39 1015.39 1015.45 1015.56 1015.67 1015.77 1015.85 1015.89 1015.91 1015.92
1010.56 1010.76 1011.08 1011.48 1011.89 1012.28 1012.59 1012.82 1012.99 1013.12 1013.26 1013.43 1013.66 1013.93 1014.21 1014.48 1014.71 1014.87 1014.97 1015.03 1015.08 1015.14 1015.23 1015.36 1015.50 1015.64 1015.73 1015.75 1015.69 1015.57 1015.42 1015.27 1015.16 1015.12 1015.14 1015.23 1015.35 1015.47 1015.58 1015.65 1015.68 1015.68 1015.67
1010.39 1010.59 1010.88 1011.22 1011.58 1011.91 1012.18 1012.40 1012.56 1012.71 1012.87 1013.08 1013.32 1013.61 1013.90 1014.17 1014.39 1014.56 1014.66 1014.72 1014.77 1014.82 1014.91 1015.01 1015.14 1015.24 1015.30 1015.30 1015.24 1015.13 1014.99 1014.87 1014.78 1014.77 1014.82 1014.92 1015.05 1015.18 1015.28 1015.34 1015.36 1015.35 1015.32
1010.01 1010.22 1010.50 1010.82 1011.14 1011.45 1011.71 1011.92 1012.10 1012.28 1012.47 1012.69 1012.95 1013.23 1013.51 1013.76 1013.97 1014.12 1014.22 1014.28 1014.33 1014.39 1014.46 1014.55 1014.65 1014.74 1014.78 1014.77 1014.71 1014.61 1014.50 1014.40 1014.34 1014.34 1014.41 1014.52 1014.64 1014.77 1014.87 1014.92 1014.93 1014.90 1014.85
1009.44 1009.67 1009.95 1010.27 1010.59 1010.89 1011.16 1011.40 1011.62 1011.82 1012.04 1012.27 1012.52 1012.78 1013.04 1013.26 1013.45 1013.59 1013.68 1013.74 1013.80 1013.86 1013.93 1014.02 1014.10 1014.17 1014.21 1014.20 1014.15 1014.07 1013.98 1013.90 1013.86 1013.87 1013.93 1014.02 1014.14 1014.25 1014.33 1014.37 1014.36 1014.33 1014.27
1008.74 1008.98 1009.27 1009.59 1009.93 1010.26 1010.56 1010.84 1011.10 1011.34 1011.57 1011.80 1012.04 1012.27 1012.48 1012.68 1012.83 1012.96 1013.05 1013.13 1013.20 1013.28 1013.37 1013.46 1013.55 1013.62 1013.65 1013.65 1013.61 1013.54 1013.46 1013.39 1013.35 1013.34 1013.38 1013.45 1013.53 1013.61 1013.66 1013.69 1013.68 1013.65 1013.59
1008.01 1008.25 1008.53 1008.86 1009.21 1009.57 1009.91 1010.24 1010.55 1010.82 1011.07 1011.29 1011.50 1011.69 1011.86 1012.02 1012.15 1012.27 1012.38 1012.48 1012.59 1012.70 1012.81 1012.93 1013.03 1013.10 1013.14 1013.14 1013.11 1013.04 1012.96 1012.88 1012.82 1012.78 1012.78 1012.80 1012.83 1012.87 1012.90 1012.92 1012.91 1012.88 1012.84
1007.39 1007.57 1007.82 1008.13 1008.48 1008.87 1009.25 1009.63 1009.97 1010.27 1010.52 1010.73 1010.91 1011.06 1011.19 1011.31 1011.42 1011.55 1011.68 1011.82 1011.97 1012.13 1012.28 1012.43 1012.55 1012.64 1012.68 1012.69 1012.65 1012.58 1012.49 1012.38 1012.28 1012.20 1012.13 1012.09 1012.07 1012.06 1012.07 1012.07 1012.07 1012.06 1012.04
1006.95 1007.05 1007.23 1007.49 1007.82 1008.21 1008.62 1009.02 1009.39 1009.71 1009.96 1010.15 1010.28 1010.39 1010.47 1010.56 1010.67 1010.80 1010.97 1011.15 1011.36 1011.57 1011.77 1011.94 1012.09 1012.19 1012.24 1012.25 1012.21 1012.12 1012.01 1011.87 1011.73 1011.58 1011.45 1011.34 1011.26 1011.21 1011.18 1011.18 1011.20 1011.22 1011.22
1006.78 1006.76 1006.83 1007.01 1007.29 1007.65 1008.06 1008.47 1008.85 1009.16 1009.40 1009.55 1009.65 1009.70 1009.75 1009.81 1009.90 1010.05 1010.24 1010.47 1010.72 1010.98 1011.22 1011.42 1011.59 1011.70 1011.76 1011.77 1011.72 1011.63 1011.49 1011.32 1011.13 1010.93 1010.74 1010.56 1010.42 1010.33 1010.28 1010.27 1010.30 1010.35 1010.39
1006.89 1006.73 1006.67 1006.75 1006.95 1007.26 1007.63 1008.03 1008.39 1008.68 1008.88 1009.00 1009.04 1009.04 1009.03 1009.06 1009.14 1009.28 1009.49 1009.74 1010.03 1010.31 1010.58 1010.80 1010.98 1011.10 1011.17 1011.18 1011.13 1011.04 1010.90 1010.71 1010.49 1010.25 1010.00 1009.77 1009.58 1009.44 1009.37 1009.35 1009.39 1009.46 1009.54
1007.26 1006.95 1006.77 1006.73 1006.84 1007.07 1007.39 1007.73 1008.05 1008.31 1008.46 1008.52 1008.50 1008.43 1008.37 1008.35 1008.39 1008.51 1008.71 1008.96 1009.25 1009.54 1009.81 1010.04 1010.22 1010.35 1010.42 1010.44 1010.41 1010.33 1010.19 1010.01 1009.78 1009.52 1009.24 1008.97 1008.74 1008.56 1008.45 1008.42 1008.45 1008.54 1008.64
1007.83 1007.41 1007.10 1006.95 1006.96 1007.11 1007.35 1007.63 1007.89 1008.08 1008.17 1008.15 1008.06 1007.92 1007.79 1007.70 1007.68 1007.76 1007.92 1008.14 1008.40 1008.66 1008.91 1009.12 1009.28 1009.41 1009.48 1009.52 1009.52 1009.47 1009.37 1009.22 1009.01 1008.75 1008.46 1008.17 1007.90 1007.68 1007.54 1007.47 1007.49 1007.56 1007.67
1008.50 1008.01 1007.62 1007.37 1007.29 1007.35 1007.52 1007.72 1007.90 1008.01 1008.02 1007.93 1007.75 1007.54 1007.32 1007.15 1007.07 1007.07 1007.16 1007.31 1007.51 1007.71 1007.90 1008.07 1008.21 1008.32 1008.40 1008.45 1008.49 1008.48 1008.43 1008.33 1008.16 1007.93 1007.65 1007.35 1007.06 1006.80 1006.62 1006.51 1006.49 1006.53 1006.62
1009.19 1008.67 1008.24 1007.93 1007.78 1007.77 1007.85 1007.97 1008.07 1008.10 1008.03 1007.85 1007.59 1007.29 1007.00 1006.75 1006.57 1006.48 1006.48 1006.54 1006.64 1006.76 1006.88 1006.98 1007.06 1007.14 1007.22 1007.29 1007.35 1007.40 1007.40 1007.36 1007.24 1007.05 1006.80 1006.50 1006.20 1005.92 1005.69 1005.53 1005.46 1005.45 1005.51
1009.82 1009.32 1008.88 1008.55 1008.35 1008.28 1008.28 1008.32 1008.34 1008.30 1008.15 1007.90 1007.57 1007.20 1006.83 1006.50 1006.23 1006.05 1005.94 1005.90 1005.89 1005.90 1005.91 1005.93 1005.94 1005.97 1006.02 1006.09 1006.17 1006.25 1006.31 1006.31 1006.25 1006.11 1005.89 1005.62 1005.31 1005.01 1004.74 1004.54 1004.41 1004.36 1004.37
Thickness
5779 5777 5774 5772 5769 5766 5764 5763 5761 5759 5757 5756 5755 5756 5755 5753 5752 5751 5749 5748 5747 5746 5745 5744 5742 5740 5738 5735 5732 5728 5724 5720 5717 5714 5711 5708 5705 5702 5698 5694 5691 5687 5684
5781 5776 5773 5771 5768 5766 5764 5761 5759 5756 5754 5754 5754 5755 5753 5751 5749 5749 5748 5747 5745 5743 5742 5740 5738 5737 5735 5732 5728 5725 5721 5717 5715 5712 5708 5705 5702 5699 5695 5691 5687 5684 5681
5780 5776 5772 5770 5767 5765 5762 5759 5756 5754 5753 5753 5753 5752 5750 5748 5747 5747 5746 5744 5742 5740 5738 5736 5735 5734 5731 5728 5725 5721 5718 5715 5713 5711 5707 5702 5700 5696 5691 5687 5684 5680 5677
5780 5776 5773 5769 5766 5763 5760 5758 5755 5753 5752 5752 5751 5750 5748 5747 5746 5745 5743 5740 5739 5737 5735 5733 5731 5730 5727 5724 5721 5717 5714 5712 5711 5709 5706 5702 5697 5693 5689 5684 5679 5675 5672
5780 5776 5773 5768 5764 5761 5759 5757 5754 5752 5751 5750 5749 5748 5747 5745 5743 5741 5739 5737 5736 5733 5731 5729 5727 5724 5721 5719 5716 5712 5710 5709 5708 5704 5702 5697 5693 5689 5685 5681 5675 5670 5667
5779 5776 5770 5767 5763 5760 5758 5755 5753 5751 5749 5748 5746 5745 5744 5742 5740 5738 5736 5734 5733 5730 5727 5724 5721 5718 5715 5713 5710 5707 5705 5705 5703 5702 5698 5693 5689 5686 5682 5677 5672 5667 5662
5777 5774 5768 5765 5762 5760 5757 5753 5751 5749 5747 5746 5744 5742 5741 5739 5738 5735 5734 5732 5730 5727 5723 5719 5716 5713 5710 5707 5705 5702 5700 5700 5699 5698 5694 5690 5686 5682 5677 5673 5669 5664 5659
5776 5772 5766 5763 5760 5758 5755 5752 5749 5747 5746 5744 5742 5740 5739 5737 5735 5733 5732 5730 5727 5724 5720 5716 5712 5709 5706 5703 5700 5697 5696 5695 5695 5694 5691 5686 5682 5677 5673 5669 5665 5661 5657
5774 5771 5765 5761 5759 5757 5754 5751 5748 5746 5744 5743 5741 5739 5737 5735 5733 5731 5730 5728 5726 5722 5718 5714 5711 5707 5704 5700 5697 5694 5692 5691 5690 5690 5688 5682 5677 5672 5668 5664 5661 5658 5654
5770 5769 5766 5762 5759 5756 5753 5751 5748 5745 5744 5742 5740 5738 5736 5733 5731 5729 5728 5727 5724 5720 5716 5712 5709 5705 5702 5698 5695 5693 5690 5688 5687 5686 5683 5678 5673 5668 5663 5658 5655 5653 5651
5766 5766 5767 5765 5762 5758 5754 5751 5749 5746 5744 5742 5740 5738 5735 5733 5731 5729 5728 5725 5722 5718 5714 5710 5706 5703 5699 5696 5694 5692 5689 5686 5685 5683 5680 5675 5669 5664 5660 5655 5651 5648 5647
5760 5763 5765 5765 5762 5760 5757 5752 5749 5747 5745 5743 5741 5738 5735 5733 5732 5731 5727 5724 5720 5716 5712 5708 5704 5700 5697 5694 5691 5689 5686 5684 5682 5680 5677 5672 5667 5660 5656 5652 5648 5645 5642
5761 5762 5764 5763 5762 5760 5757 5753 5750 5749 5746 5743 5741 5738 5735 5734 5732 5729 5724 5721 5718 5714 5710 5706 5703 5700 5697 5694 5690 5686 5684 5682 5681 5678 5674 5669 5665 5658 5653 5649 5645 5641 5638
5762 5763 5764 5765 5762 5759 5756 5752 5751 5749 5747 5744 5741 5739 5736 5734 5731 5728 5724 5720 5716 5712 5707 5704 5701 5699 5698 5696 5692 5688 5685 5682 5680 5677 5673 5668 5663 5658 5652 5648 5644 5640 5635
5765 5766 5765 5764 5761 5758 5754 5751 5749 5748 5746 5744 5742 5739 5736 5732 5727 5724 5722 5719 5716 5712 5708 5704 5701 5700 5698 5696 5693 5689 5686 5683 5679 5675 5671 5666 5661 5656 5652 5647 5643 5639 5635
5769 5768 5767 5764 5760 5757 5753 5750 5747 5746 5744 5742 5739 5735 5732 5729 5725 5721 5719 5716 5714 5711 5708 5704 5700 5698 5696 5694 5691 5688 5684 5680 5676 5673 5669 5664 5658 5654 5649 5645 5640 5636 5633
5771 5770 5768 5766 5761 5756 5752 5749 5745 5742 5741 5738 5735 5733 5730 5727 5724 5721 5718 5715 5712 5709 5706 5704 5700 5697 5695 5692 5689 5686 5682 5678 5675 5671 5667 5663 5657 5652 5646 5642 5638 5634 5630
5773 5771 5770 5767 5762 5755 5751 5747 5744 5741 5739 5736 5733 5730 5728 5725 5723 5719 5716 5713 5712 5709 5706 5702 5698 5694 5691 5687 5684 5681 5678 5674 5671 5668 5664 5660 5655 5650 5644 5640 5635 5631 5627
5776 5772 5768 5764 5760 5756 5750 5747 5744 5741 5739 5736 5733 5730 5727 5725 5722 5719 5717 5715 5711 5708 5704 5700 5696 5691 5686 5682 5679 5676 5673 5670 5668 5665 5661 5657 5652 5648 5643 5638 5633 5628 5622
5775 5773 5769 5765 5761 5757 5752 5746 5741 5739 5738 5737 5734 5732 5728 5725 5722 5719 5717 5713 5709 5705 5701 5696 5691 5686 5682 5677 5674 5672 5669 5667 5664 5661 5658 5654 5649 5645 5640 5635 5630 5625 5620
5764 5764 5764 5762 5760 5756 5749 5742 5737 5733 5733 5732 5732 5730 5727 5723 5720 5717 5715 5710 5705 5701 5697 5693 5687 5681 5677 5671 5664 5661 5661 5661 5661 5658 5654 5650 5647 5642 5637 5634 5629 5623 5617
5750 5752 5753 5755 5755 5753 5749 5743 5738 5733 5731 5730 5728 5727 5725 5720 5716 5713 5710 5706 5701 5697 5692 5688 5682 5676 5672 5665 5658 5650 5648 5652 5656 5654 5650 5648 5645 5639 5634 5629 5623 5619 5614
5738 5740 5743 5744 5746 5747 5745 5739 5734 5729 5725 5722 5721 5720 5717 5713 5709 5707 5705 5701 5697 5693 5688 5684 5677 5671 5666 5661 5656 5646 5639 5642 5645 5653 5652 5648 5642 5635 5629 5622 5616 5613 5610
5730 5733 5735 5737 5738 5738 5737 5732 5726 5719 5715 5715 5713 5713 5713 5711 5708 5705 5700 5695 5691 5686 5683 5679 5673 5668 5661 5656 5650 5646 5643 5639 5633 5636 5640 5641 5637 5631 5623 5615 5609 5605 5601
5721 5723 5726 5727 5727 5727 5725 5722 5719 5715 5713 5712 5710 5709 5709 5709 5708 5705 5699 5692 5687 5684 5681 5676 5670 5664 5659 5653 5646 5640 5636 5632 5630 5624 5624 5627 5625 5624 5618 5612 5607 5601 5595
5713 5714 5714 5714 5713 5713 5712 5710 5707 5704 5702 5700 5698 5697 5697 5698 5698 5696 5692 5686 5681 5676 5673 5668 5663 5658 5654 5649 5644 5638 5631 5627 5626 5620 5615 5616 5614 5614 5611 5608 5605 5599 5593